When you browse on this site, cookies collect data to enhance your experience and personalize the content and advertising you see.
Visit our Privacy Policy to learn more. By continuing to use the site, you agree to this use of cookies and data.
  • In Latvia
  • List of Countries
  • For 7 days
  • Water Temperature
  • Weather Map
  • Weather Widgets
  • user-avatar
    Login

    Hourly Weather Pully

    Today, 18 August, Sunday

    Time Temperature Precipitation Wind Pressure Humidity
    00:00 +21°C° 0 mm 3 mps 721 mmHg 62%
    01:00 +21°C° 0 mm 3 mps 721 mmHg 63%
    02:00 +20°C° 0 mm 3 mps 721 mmHg 63%
    03:00 +20°C° 0 mm 3 mps 720 mmHg 64%
    04:00 +21°C° 0 mm 2 mps 720 mmHg 64%
    05:00 +21°C° 0 mm 2 mps 720 mmHg 65%
    06:00 +23°C° 0 mm 2 mps 720 mmHg 66%
    07:00 +25°C° 0 mm 2 mps 720 mmHg 59%
    08:00 +27°C° 0 mm 2 mps 720 mmHg 53%
    09:00 +29°C° 0 mm 3 mps 720 mmHg 47%
    10:00 +30°C° 0 mm 3 mps 720 mmHg 45%
    11:00 +31°C° 0 mm 3 mps 720 mmHg 44%
    12:00 +33°C° 0 mm 3 mps 721 mmHg 42%
    13:00 +33°C° 0 mm 4 mps 720 mmHg 45%
    14:00 +32°C° 0 mm 4 mps 720 mmHg 47%
    15:00 +32°C° 0 mm 4 mps 720 mmHg 49%
    16:00 +29°C° 0.2 mm 3 mps 720 mmHg 60%
    17:00 +27°C° 0.2 mm 2 mps 720 mmHg 70%
    18:00 +25°C° 0.2 mm 1 mps 720 mmHg 80%
    19:00 +24°C° 2.4 mm 1 mps 721 mmHg 85%
    20:00 +23°C° 2.4 mm 1 mps 721 mmHg 89%
    21:00 +21°C° 2.4 mm 1 mps 722 mmHg 93%
    22:00 +21°C° 1.9 mm 1 mps 722 mmHg 94%
    23:00 +21°C° 1.9 mm 1 mps 722 mmHg 94%

    Tomorrow, 19 August, Monday

    Time Temperature Precipitation Wind Pressure Humidity
    00:00 +20°C° 1.9 mm 2 mps 722 mmHg 95%
    01:00 +20°C° 1.5 mm 1 mps 722 mmHg 96%
    02:00 +20°C° 1.5 mm 1 mps 723 mmHg 96%
    03:00 +20°C° 1.5 mm 1 mps 723 mmHg 96%
    04:00 +20°C° 0.8 mm 1 mps 723 mmHg 96%
    05:00 +20°C° 0.8 mm 1 mps 723 mmHg 95%
    06:00 +20°C° 0.8 mm 1 mps 723 mmHg 95%
    07:00 +21°C° 0.4 mm 1 mps 723 mmHg 92%
    08:00 +22°C° 0.4 mm 1 mps 723 mmHg 89%
    09:00 +23°C° 0.4 mm 1 mps 723 mmHg 86%
    10:00 +24°C° 0.3 mm 1 mps 724 mmHg 81%
    11:00 +24°C° 0.3 mm 1 mps 724 mmHg 77%
    12:00 +25°C° 0.3 mm 1 mps 724 mmHg 72%
    13:00 +25°C° 0.6 mm 1 mps 724 mmHg 73%
    14:00 +25°C° 0.6 mm 1 mps 724 mmHg 75%
    15:00 +25°C° 0.6 mm 1 mps 723 mmHg 76%
    16:00 +24°C° 0.4 mm 1 mps 724 mmHg 81%
    17:00 +23°C° 0.4 mm 1 mps 724 mmHg 85%
    18:00 +22°C° 0.4 mm 1 mps 724 mmHg 89%
    19:00 +21°C° 0.5 mm 1 mps 724 mmHg 90%
    20:00 +20°C° 0.5 mm 1 mps 724 mmHg 92%
    21:00 +19°C° 0.5 mm 1 mps 724 mmHg 94%
    22:00 +19°C° 0.6 mm 1 mps 724 mmHg 94%
    23:00 +17°C° 0.6 mm 0 mps 724 mmHg 94%

    Day after tomorrow, 20 August, Tuesday

    Time Temperature Precipitation Wind Pressure Humidity
    00:00 +17°C° 0.6 mm 0 mps 724 mmHg 94%
    01:00 +19°C° 0.9 mm 1 mps 724 mmHg 95%
    02:00 +19°C° 0.9 mm 1 mps 724 mmHg 96%
    03:00 +19°C° 0.9 mm 1 mps 724 mmHg 97%
    04:00 +19°C° 0.5 mm 1 mps 724 mmHg 97%
    05:00 +19°C° 0.5 mm 1 mps 724 mmHg 97%
    06:00 +20°C° 0.5 mm 1 mps 725 mmHg 97%
    07:00 +20°C° 1.7 mm 1 mps 725 mmHg 97%
    08:00 +19°C° 1.7 mm 1 mps 725 mmHg 97%
    09:00 +19°C° 1.7 mm 1 mps 725 mmHg 97%
    10:00 +18°C° 1.9 mm 2 mps 725 mmHg 97%
    11:00 +18°C° 1.9 mm 2 mps 725 mmHg 96%
    12:00 +17°C° 1.9 mm 2 mps 726 mmHg 95%
    13:00 +17°C° 1.8 mm 2 mps 726 mmHg 96%
    14:00 +16°C° 1.8 mm 1 mps 726 mmHg 96%
    15:00 +15°C° 1.8 mm 1 mps 726 mmHg 96%
    16:00 +15°C° 1.3 mm 1 mps 726 mmHg 97%
    17:00 +15°C° 1.3 mm 1 mps 727 mmHg 97%
    18:00 +14°C° 1.3 mm 2 mps 727 mmHg 98%
    19:00 +14°C° 1.2 mm 2 mps 727 mmHg 97%
    20:00 +14°C° 1.2 mm 2 mps 727 mmHg 97%
    21:00 +13°C° 1.2 mm 3 mps 727 mmHg 97%
    22:00 +13°C° 0.1 mm 3 mps 727 mmHg 97%
    23:00 +13°C° 0.1 mm 3 mps 727 mmHg 97%

    21 August, Wednesday

    Time Temperature Precipitation Wind Pressure Humidity
    00:00 +14°C° 0.1 mm 2 mps 727 mmHg 96%
    01:00 +13°C° 0 mm 3 mps 727 mmHg 96%
    02:00 +13°C° 0 mm 3 mps 727 mmHg 96%
    03:00 +12°C° 0 mm 3 mps 727 mmHg 97%
    04:00 +13°C° 0 mm 3 mps 727 mmHg 96%
    05:00 +13°C° 0 mm 3 mps 727 mmHg 96%
    06:00 +13°C° 0 mm 4 mps 727 mmHg 95%
    07:00 +14°C° 0 mm 4 mps 727 mmHg 90%
    08:00 +17°C° 0 mm 4 mps 727 mmHg 86%
    09:00 +18°C° 0 mm 4 mps 727 mmHg 81%
    10:00 +19°C° 0 mm 4 mps 726 mmHg 78%
    11:00 +20°C° 0 mm 4 mps 726 mmHg 75%
    12:00 +21°C° 0 mm 4 mps 726 mmHg 71%
    13:00 +21°C° 0 mm 4 mps 726 mmHg 72%
    14:00 +21°C° 0 mm 4 mps 726 mmHg 72%
    15:00 +21°C° 0 mm 4 mps 726 mmHg 72%
    16:00 +20°C° 0 mm 4 mps 726 mmHg 77%
    17:00 +19°C° 0 mm 3 mps 726 mmHg 81%
    18:00 +18°C° 0 mm 3 mps 726 mmHg 86%
    19:00 +17°C° 0 mm 3 mps 726 mmHg 88%
    20:00 +17°C° 0 mm 3 mps 726 mmHg 91%
    21:00 +16°C° 0 mm 2 mps 726 mmHg 94%
    22:00 +16°C° 0 mm 2 mps 726 mmHg 94%
    23:00 +15°C° 0 mm 2 mps 726 mmHg 95%

    22 August, Thursday

    Time Temperature Precipitation Wind Pressure Humidity
    00:00 +15°C° 0 mm 2 mps 726 mmHg 95%
    01:00 +15°C° 0 mm 2 mps 726 mmHg 95%
    02:00 +15°C° 0 mm 2 mps 726 mmHg 95%
    03:00 +15°C° 0 mm 1 mps 726 mmHg 96%
    04:00 +15°C° 0 mm 2 mps 726 mmHg 94%
    05:00 +16°C° 0 mm 2 mps 726 mmHg 93%
    06:00 +16°C° 0 mm 2 mps 727 mmHg 92%
    07:00 +18°C° 0 mm 2 mps 727 mmHg 87%
    08:00 +19°C° 0 mm 2 mps 727 mmHg 82%
    09:00 +21°C° 0 mm 2 mps 727 mmHg 76%
    10:00 +23°C° 0 mm 2 mps 727 mmHg 73%
    11:00 +24°C° 0 mm 2 mps 727 mmHg 70%
    12:00 +25°C° 0 mm 2 mps 726 mmHg 67%
    13:00 +25°C° 0 mm 3 mps 726 mmHg 68%
    14:00 +25°C° 0 mm 3 mps 726 mmHg 68%
    15:00 +25°C° 0 mm 3 mps 726 mmHg 69%
    16:00 +24°C° 0 mm 3 mps 726 mmHg 76%
    17:00 +21°C° 0 mm 3 mps 726 mmHg 83%
    18:00 +20°C° 0 mm 3 mps 726 mmHg 90%
    19:00 +19°C° 0 mm 3 mps 726 mmHg 92%
    20:00 +18°C° 0 mm 3 mps 726 mmHg 93%
    21:00 +17°C° 0 mm 3 mps 726 mmHg 95%
    22:00 +17°C° 0 mm 2 mps 726 mmHg 95%
    23:00 +16°C° 0 mm 2 mps 726 mmHg 95%

    23 August, Friday

    Time Temperature Precipitation Wind Pressure Humidity
    00:00 +16°C° 0 mm 2 mps 726 mmHg 95%
    01:00 +16°C° 0 mm 1 mps 726 mmHg 95%
    02:00 +16°C° 0 mm 1 mps 726 mmHg 95%
    03:00 +16°C° 0 mm 1 mps 726 mmHg 94%
    04:00 +16°C° 0 mm 1 mps 726 mmHg 93%
    05:00 +18°C° 0 mm 1 mps 726 mmHg 92%
    06:00 +18°C° 0 mm 1 mps 726 mmHg 91%
    07:00 +20°C° 0 mm 1 mps 726 mmHg 84%
    08:00 +22°C° 0 mm 1 mps 726 mmHg 77%
    09:00 +24°C° 0 mm 1 mps 726 mmHg 70%
    10:00 +26°C° 0 mm 1 mps 726 mmHg 67%
    11:00 +27°C° 0 mm 1 mps 726 mmHg 64%
    12:00 +28°C° 0 mm 1 mps 725 mmHg 61%
    13:00 +28°C° 0.1 mm 1 mps 725 mmHg 62%
    14:00 +28°C° 0.1 mm 1 mps 725 mmHg 62%
    15:00 +28°C° 0.1 mm 1 mps 725 mmHg 63%
    16:00 +26°C° 0.1 mm 1 mps 724 mmHg 71%
    17:00 +25°C° 0.1 mm 1 mps 724 mmHg 78%
    18:00 +23°C° 0.1 mm 1 mps 724 mmHg 86%
    19:00 +22°C° 0 mm 1 mps 724 mmHg 87%
    20:00 +21°C° 0 mm 1 mps 725 mmHg 87%
    21:00 +20°C° 0 mm 1 mps 725 mmHg 88%
    22:00 +20°C° 0 mm 1 mps 725 mmHg 88%
    23:00 +20°C° 0 mm 1 mps 725 mmHg 88%
    Show more